Regional Weather Roundup
Issued by NWS

Home | Current Version | Previous Version | Graphics & Text | Print | Product List | Glossary On
Versions: 1 2 3 4 5 6 7 8 9 10 11 12 13 14 15 16 17 18 19 20 21 22 23 24 25 26 27 28 29 30 31 32 33 34 35 36 37 38 39 40 41 42 43 44 45 46 47 48 49 50
000
ASUS43 KFSD 030210
RWRSD

WEATHER ROUNDUP FOR SOUTH DAKOTA
NATIONAL WEATHER SERVICE SIOUX FALLS SD
900 PM CDT THU JUL 02 2015

NOTE: "FAIR" INDICATES FEW OR NO CLOUDS BELOW 12,000 FEET WITH NO
SIGNIFICANT WEATHER AND/OR OBSTRUCTIONS TO VISIBILITY.


SDZ001>005-009-010-012>017-030300-
NORTHWEST AND NORTH CENTRAL SOUTH DAKOTA

CITY           SKY/WX    TMP DP  RH WIND       PRES   REMARKS
BUFFALO          N/A     74  59  59 NE6       30.00R
FAITH            N/A     72  59  63 N7        30.02S
MOBRIDGE       CLEAR     74  69  85 N3        29.94S HAZE
$$

SDZ012>016-024>037-041>051-057-063-072>074-030300-
SOUTHWEST AND SOUTH CENTRAL SOUTH DAKOTA

CITY           SKY/WX    TMP DP  RH WIND       PRES   REMARKS
RAPID CTY ARPT CLEAR     71  60  68 N7        30.06S
PIERRE         PTCLDY    74  64  71 CALM      29.96R
CUSTER         CLEAR     67  49  52 NE7       30.19S
ELLSWORTH AFB  CLEAR     74  59  59 N7        30.05S
PHILIP         CLEAR     74  63  68 N6        29.99R
PINE RIDGE     CLEAR     72  60  66 N3        30.06S
SPEARFISH      FAIR      68  59  73 CALM      30.12S
WINNER         FAIR      72  61  68 E6        29.98S
$$

SDZ004>011-016>023-039-040-030300-
NORTHEAST SOUTH DAKOTA

CITY           SKY/WX    TMP DP  RH WIND       PRES   REMARKS
ABERDEEN       PTCLDY    68  62  81 S5        29.97R
WATERTOWN      CLEAR     64  53  67 S6        29.97F
BROOKINGS      PTCLDY    66  54  63 S3        30.00S
SISSETON         N/A     66  57  72 SW3       29.95R
$$

SDZ017-020-022-023-036>040-048>070-030300-
SOUTHEAST SOUTH DAKOTA

CITY           SKY/WX    TMP DP  RH WIND       PRES   REMARKS
SIOUX FALLS    PTCLDY    66  59  78 S3        29.98S
HURON          PTCLDY    67  60  78 S5        29.97S
CHAMBERLAIN    CLEAR     67  64  91 E6        29.98S
MITCHELL       CLEAR     67  62  84 SE5       29.98S
YANKTON        MOCLDY    66  61  82 E3        29.97R
$$

ABBREVIATIONS USED IN REMARKS
   TC - TEMPERATURE IN CELSIUS
  WCI - WIND CHILL INDEX
   HX - HEAT INDEX
  VSB - VISIBILITY



USA.gov is the U.S. government's official web portal to all federal, state and local government web resources and services.